Location: Unspecified
(49.2170°N, 0.0000°E)
Time: 17:11:32
(UTC+00:00)

A-11 Canister half - Pass Details

Date: 25 June 2019
Orbit: 1526 x 1683 km, 47.3° (Epoch: 16 August)

Event Time Altitude Azimuth Distance (km) Brightness Sun altitude
Rises 03:43:00 0° 224° (SW) 4,767 - -2.4°
Exits shadow 03:43:49 - 224° (SW) 4,509 10.8 -2.3°
Reaches altitude 10° 03:46:14 10° 220° (SW) 3,764 10.4 -2.0°
Maximum altitude 03:55:12 50° 149° (SSE) 1,903 9.5 -0.9°
Drops below altitude 10° 04:04:01 10° 78° (ENE) 3,700 12.4 0.2°
Sets 04:07:09 0° 73° (ENE) 4,681 13.2 0.7°
